Location: Peebles
(55.6412°N, 3.1714°W)
Time: 17:04:39
(UTC+01:00)

USA 281 - Pass Details

Date: 27 January 2022
Orbit: 1070 x 1089 km, 106.0° (Epoch: 25 March)

Event Time Altitude Azimuth Distance (km) Brightness Sun altitude
Rises 02:30:00 0° 29° (NNE) 3,905 6.8 -46.0°
Reaches altitude 10° 02:32:32 10° 30° (NNE) 2,947 6.0 -45.8°
Enters shadow 02:34:53 24° 32° (NNE) 2,090 5.1 -45.5°
